This is the latest recevied weather packets stored in our database for station/object SQ9RHX-13. If no packets are shown the sender has not sent any weather packets the latest 1 day(s).
| Time | Temp. | Humidity | Pressure | Rain* | Wind** | Luminosity | Snow |
|---|---|---|---|---|---|---|---|
| 1777962903 | 16.11° C | 72% | 1012.7 hPa | 0 mm | 0.45 m/s, 53° | 95 W/m² | - |
| 1777962602 | 16.11° C | 72% | 1012.8 hPa | 0 mm | 0.45 m/s, 45° | 73 W/m² | - |
| 1777962303 | 16.11° C | 72% | 1012.9 hPa | 0 mm | 0 m/s | 64 W/m² | - |
| 1777962002 | 15.56° C | 73% | 1012.9 hPa | 0 mm | 0.45 m/s, 76° | 69 W/m² | - |
| 1777961703 | 15.56° C | 73% | 1013.1 hPa | 0 mm | 0 m/s | 73 W/m² | - |
| 1777961404 | 15.56° C | 73% | 1012.8 hPa | 0 mm | 0.45 m/s, 50° | 75 W/m² | - |
| 1777961105 | 15.56° C | 74% | 1013 hPa | 0 mm | 0 m/s | 72 W/m² | - |
| 1777960803 | 15.56° C | 74% | 1012.9 hPa | 0 mm | 0 m/s | 73 W/m² | - |
| 1777960503 | 15.56° C | 74% | 1013.1 hPa | 0 mm | 0.45 m/s, 50° | 74 W/m² | - |
| 1777960204 | 15.56° C | 74% | 1013.2 hPa | 0 mm | 0 m/s | 73 W/m² | - |
| 1777959903 | 15.56° C | 74% | 1013.3 hPa | 0 mm | 0 m/s | 68 W/m² | - |
| 1777959605 | 15.56° C | 74% | 1013.1 hPa | 0 mm | 0 m/s | 67 W/m² | - |
| 1777959306 | 15.56° C | 75% | 1013.2 hPa | 0 mm | 0 m/s | 60 W/m² | - |
| 1777959003 | 15.56° C | 74% | 1013.3 hPa | 0 mm | 0.45 m/s, 8° | 50 W/m² | - |
| 1777958703 | 15.56° C | 74% | 1013.1 hPa | 0 mm | 0 m/s | 55 W/m² | - |
| 1777958402 | 16.11° C | 74% | 1013 hPa | 0 mm | 0 m/s | 62 W/m² | - |
| 1777958104 | 15.56° C | 74% | 1013.2 hPa | 0 mm | 0 m/s | 67 W/m² | - |
| 1777957803 | 15.56° C | 74% | 1013.6 hPa | 0 mm | 0 m/s | 71 W/m² | - |
| 1777957504 | 15.56° C | 75% | 1013.5 hPa | 0 mm | 0 m/s | 80 W/m² | - |
| 1777957204 | 15° C | 76% | 1013.5 hPa | 0 mm | 0 m/s | 78 W/m² | - |
| 1777956903 | 15° C | 78% | 1013.4 hPa | 0 mm | 0 m/s | 72 W/m² | - |
| 1777956605 | 14.44° C | 81% | 1013.5 hPa | 0 mm | 0 m/s | 89 W/m² | - |
| 1777956303 | 13.89° C | 83% | 1013.3 hPa | 0 mm | 0 m/s | 63 W/m² | - |
| 1777956003 | 13.33° C | 84% | 1013.4 hPa | 0 mm | 0 m/s | 49 W/m² | - |
| 1777955702 | 12.78° C | 86% | 1013.4 hPa | 0 mm | 0 m/s | 47 W/m² | - |
* Rain latest hour (hover to see other rain measurements)
** Current wind speed in m/s (hover to see current wind gust speed)